Weather in Konin

Poland     52°13′46″N   18°15′07″E
temp.,
°C
wind,
m/s
gust,
m/s
humid.,
%
clouds,
%
prec.,
mm/h
press.,
hPa
HPBL,
m
7 july, thu
thu723:00+13wnw367034 0.0 101993
02:00+15w2464100 0.0 1019148
05:00+14sw356198 0.0 1018186
08:00+16wsw4559100 0.0 1017415
11:00+21wsw674285 0.0 10162040
14:00+18w785199 0.0 1016885
17:00+16wsw4859100 0.0 1017742
20:00+15sw2667100 0.0 1016315
8 july, fri
fri823:00+15ssw366596 0.0 1017173
02:00+14ssw247448 0.0 101887
05:00+14wsw248655 0.0 1019136
08:00+17w567788 0.0 1020790
11:00+20wnw565997 0.0 10201254
14:00+20w8866100 0.3 10201074
17:00+20nw6106796 2.4 10201402
20:00+18nw4106842 3.1 1020251
9 july, sat
sat923:00+15nw4980100 0.0 1021207
02:00+12w489486 0.0 1021159
05:00+12w489480 0.0 1021181
08:00+16wnw587097 0.0 1020622
11:00+20w784785 0.0 10191629
14:00+20wnw8941100 0.0 10182051
17:00+22wnw51036100 0.0 10172555
20:00+19wnw7115327 0.0 1016773
10 july, sun
sun1023:00+16nw486774 0.1 1016275
02:00+14wnw397222 0.1 1016508
05:00+10w5118298 0.0 1016304
08:00+13w71171100 0.1 1016786
11:00+17wnw8850100 0.2 10151905
14:00+18wnw895569 0.3 10151551
17:00+19nw81158100 0.8 10151396
20:00+17wnw6105556 0.9 1015476
11 july, mon
mon1123:00+13nw410602 0.0 1016173
02:00+11wnw4117727 0.0 1016216
05:00+12w497996 0.0 1016259
08:00+15wnw4667100 0.0 1016383
11:00+20nnw684733 0.6 10162106
14:00+22nw793542 0.6 10162613
17:00+22n893833 0.0 10162024
20:00+18nne36565 0.0 1017172